JIA5150 KCHS-KCLT

Flight info

Callsign JIA5150
Flight time 0h 45m
Altitude 20000
Route SWPFX3 FILLI FLLGG STOCR4
Aircraft CRJ9/M-SDFGIRWY/S

Departure

Time 2026-04-21 21:51
Airport Charleston International Airport (KCHS)

Arrival

Time 2026-04-21 22:36
Airport Charlotte Douglas International Airport (KCLT)
Time Latitude Longitude Altitude Speed Heading
2026-04-21 21:15 32.88656 -80.03772 39 ft 0 kts 198°
2026-04-21 21:31 32.88657 -80.03771 39 ft 1 kts 198°
2026-04-21 21:32 32.88680 -80.03766 39 ft 4 kts 179°
2026-04-21 21:32 32.88703 -80.03775 39 ft 4 kts 143°
2026-04-21 21:32 32.88717 -80.03799 39 ft 4 kts 108°
2026-04-21 21:32 32.88719 -80.03829 39 ft 4 kts 79°
2026-04-21 21:33 32.88712 -80.03850 39 ft 0 kts 53°
2026-04-21 21:37 32.88724 -80.03829 39 ft 5 kts 60°
2026-04-21 21:37 32.88742 -80.03781 39 ft 8 kts 71°
2026-04-21 21:37 32.88752 -80.03712 39 ft 9 kts 86°
2026-04-21 21:38 32.88770 -80.03650 39 ft 8 kts 38°
2026-04-21 21:38 32.88821 -80.03632 39 ft 8 kts
2026-04-21 21:38 32.88881 -80.03622 39 ft 9 kts
2026-04-21 21:38 32.88942 -80.03634 39 ft 9 kts 316°
2026-04-21 21:39 32.88943 -80.03700 39 ft 9 kts 236°
2026-04-21 21:39 32.88903 -80.03763 39 ft 11 kts 232°
2026-04-21 21:39 32.88856 -80.03835 39 ft 12 kts 231°
2026-04-21 21:39 32.88803 -80.03913 39 ft 12 kts 232°
2026-04-21 21:40 32.88749 -80.03996 39 ft 13 kts 231°
2026-04-21 21:40 32.88706 -80.04059 39 ft 13 kts 231°
2026-04-21 21:40 32.88650 -80.04145 39 ft 13 kts 231°
2026-04-21 21:40 32.88593 -80.04230 39 ft 13 kts 232°
2026-04-21 21:41 32.88537 -80.04315 39 ft 14 kts 231°
2026-04-21 21:41 32.88485 -80.04397 39 ft 11 kts 247°
2026-04-21 21:41 32.88481 -80.04495 39 ft 13 kts 276°
2026-04-21 21:41 32.88513 -80.04593 39 ft 13 kts 315°
2026-04-21 21:42 32.88593 -80.04642 39 ft 13 kts 335°
2026-04-21 21:42 32.88677 -80.04688 39 ft 14 kts 335°
2026-04-21 21:42 32.88767 -80.04688 39 ft 15 kts 24°
2026-04-21 21:42 32.88871 -80.04632 39 ft 17 kts 24°
2026-04-21 21:43 32.88963 -80.04582 39 ft 17 kts 24°
2026-04-21 21:43 32.89076 -80.04522 39 ft 18 kts 24°
2026-04-21 21:43 32.89188 -80.04467 39 ft 17 kts 10°
2026-04-21 21:43 32.89309 -80.04462 39 ft 18 kts
2026-04-21 21:44 32.89403 -80.04460 39 ft 18 kts
2026-04-21 21:44 32.89491 -80.04458 39 ft 18 kts
2026-04-21 21:44 32.89616 -80.04455 39 ft 18 kts
2026-04-21 21:44 32.89741 -80.04453 39 ft 18 kts
2026-04-21 21:45 32.89831 -80.04450 39 ft 18 kts
2026-04-21 21:45 32.89928 -80.04448 39 ft 18 kts
2026-04-21 21:45 32.90056 -80.04445 39 ft 19 kts
2026-04-21 21:45 32.90185 -80.04443 39 ft 19 kts
2026-04-21 21:46 32.90269 -80.04441 39 ft 19 kts
2026-04-21 21:46 32.90365 -80.04438 39 ft 19 kts
2026-04-21 21:46 32.90485 -80.04495 39 ft 19 kts 328°
2026-04-21 21:46 32.90590 -80.04574 39 ft 19 kts 327°
2026-04-21 21:47 32.90646 -80.04616 39 ft 19 kts 327°
2026-04-21 21:47 32.90728 -80.04679 39 ft 19 kts 327°
2026-04-21 21:47 32.90841 -80.04764 39 ft 19 kts 328°
2026-04-21 21:47 32.90944 -80.04842 39 ft 18 kts 327°
2026-04-21 21:48 32.91027 -80.04905 39 ft 18 kts 327°
2026-04-21 21:48 32.91110 -80.04968 39 ft 18 kts 327°
2026-04-21 21:48 32.91185 -80.04999 39 ft 10 kts 30°
2026-04-21 21:48 32.91219 -80.04952 39 ft 9 kts 56°
2026-04-21 21:49 32.91246 -80.04903 39 ft 9 kts 56°
2026-04-21 21:49 32.91275 -80.04851 40 ft 9 kts 57°
2026-04-21 21:49 32.91274 -80.04791 40 ft 8 kts 135°
2026-04-21 21:49 32.91200 -80.04732 40 ft 25 kts 147°
2026-04-21 21:50 32.90883 -80.04492 40 ft 84 kts 147°
2026-04-21 21:50 32.90249 -80.04012 39 ft 132 kts 147°
2026-04-21 21:50 32.89380 -80.03334 150 ft 160 kts 145°
2026-04-21 21:50 32.88639 -80.02753 585 ft 163 kts 144°
2026-04-21 21:51 32.88285 -80.02471 821 ft 164 kts 144°
2026-04-21 21:51 32.87636 -80.01788 1199 ft 171 kts 129°
2026-04-21 21:51 32.87288 -80.00428 1544 ft 181 kts 77°
2026-04-21 21:51 32.87870 -79.99387 2121 ft 183 kts 34°
2026-04-21 21:52 32.88623 -79.98966 2573 ft 182 kts 29°
2026-04-21 21:52 32.89355 -79.98270 2929 ft 186 kts 53°
2026-04-21 21:52 32.90206 -79.97060 3383 ft 206 kts 49°
2026-04-21 21:52 32.91107 -79.95926 3941 ft 221 kts 46°
2026-04-21 21:53 32.91627 -79.95302 4248 ft 228 kts 44°
2026-04-21 21:53 32.92491 -79.94316 4757 ft 236 kts 42°
2026-04-21 21:53 32.93840 -79.93226 5592 ft 235 kts 14°
2026-04-21 21:53 32.95422 -79.92989 6507 ft 236 kts
2026-04-21 21:54 32.96675 -79.93032 7140 ft 237 kts 357°
2026-04-21 21:54 32.98336 -79.93181 7953 ft 240 kts 356°
2026-04-21 21:54 33.00015 -79.93331 8752 ft 244 kts 356°
2026-04-21 21:54 33.01733 -79.93441 9401 ft 256 kts 358°
2026-04-21 21:55 33.03626 -79.93518 9648 ft 281 kts 358°
2026-04-21 21:55 33.05614 -79.93595 10237 ft 294 kts 358°
2026-04-21 21:55 33.07721 -79.93680 10655 ft 311 kts 358°
2026-04-21 21:55 33.09902 -79.93769 11166 ft 322 kts 358°
2026-04-21 21:56 33.12075 -79.93857 11922 ft 325 kts 358°
2026-04-21 21:56 33.14338 -79.93949 12698 ft 328 kts 357°
2026-04-21 21:56 33.16628 -79.94043 13477 ft 331 kts 357°
2026-04-21 21:56 33.18940 -79.94143 14248 ft 334 kts 357°
2026-04-21 21:57 33.21270 -79.94237 14954 ft 336 kts 358°
2026-04-21 21:57 33.23573 -79.93979 15605 ft 342 kts
2026-04-21 21:57 33.24773 -79.93678 15946 ft 344 kts 10°
2026-04-21 21:57 33.26115 -79.93282 16323 ft 346 kts 12°
2026-04-21 21:58 33.26633 -79.93120 16466 ft 347 kts 12°
2026-04-21 21:58 33.27383 -79.92883 16680 ft 348 kts 12°
2026-04-21 21:58 33.28619 -79.92495 17011 ft 350 kts 11°
2026-04-21 21:58 33.30257 -79.91985 17456 ft 352 kts 11°
2026-04-21 21:59 33.30835 -79.91807 17610 ft 352 kts 11°
2026-04-21 21:59 33.31470 -79.91612 17785 ft 353 kts 11°
2026-04-21 21:59 33.32998 -79.91149 18179 ft 355 kts 10°
2026-04-21 22:00 33.35407 -79.90465 18781 ft 357 kts
2026-04-21 22:00 33.37844 -79.89774 19300 ft 361 kts
2026-04-21 22:00 33.39521 -79.89308 19655 ft 362 kts
2026-04-21 22:00 33.41001 -79.88909 19910 ft 366 kts
2026-04-21 22:01 33.43522 -79.88219 20143 ft 377 kts
2026-04-21 22:01 33.46128 -79.87500 20248 ft 391 kts
2026-04-21 22:01 33.48792 -79.86761 20303 ft 405 kts
2026-04-21 22:01 33.51592 -79.85984 20326 ft 419 kts
2026-04-21 22:02 33.54472 -79.85181 20343 ft 426 kts
2026-04-21 22:02 33.57269 -79.84402 20328 ft 400 kts
2026-04-21 22:02 33.59945 -79.83658 20309 ft 394 kts
2026-04-21 22:02 33.62628 -79.82916 20305 ft 397 kts
2026-04-21 22:03 33.65324 -79.82164 20304 ft 399 kts
2026-04-21 22:03 33.68043 -79.81403 20313 ft 403 kts
2026-04-21 22:03 33.70680 -79.80672 20314 ft 406 kts
2026-04-21 22:03 33.73440 -79.79902 20315 ft 409 kts
2026-04-21 22:04 33.76232 -79.79121 20349 ft 414 kts
2026-04-21 22:04 33.79047 -79.78360 20337 ft 417 kts
2026-04-21 22:04 33.81898 -79.78396 20335 ft 407 kts 344°
2026-04-21 22:04 33.84473 -79.79693 20341 ft 400 kts 329°
2026-04-21 22:05 33.86852 -79.81409 20347 ft 397 kts 327°
2026-04-21 22:05 33.89151 -79.83239 20339 ft 395 kts 324°
2026-04-21 22:05 33.91378 -79.85166 20328 ft 394 kts 322°
2026-04-21 22:05 33.93295 -79.87500 20323 ft 392 kts 309°
2026-04-21 22:06 33.94602 -79.89541 20325 ft 391 kts 308°
2026-04-21 22:06 33.95167 -79.90446 20320 ft 391 kts 308°
2026-04-21 22:06 33.96779 -79.93018 20319 ft 390 kts 308°
2026-04-21 22:06 33.98446 -79.95591 20321 ft 388 kts 309°
2026-04-21 22:07 34.00152 -79.97809 20309 ft 387 kts 321°
2026-04-21 22:07 34.02318 -79.99542 20321 ft 386 kts 328°
2026-04-21 22:07 34.04690 -80.01062 20319 ft 386 kts 333°
2026-04-21 22:07 34.07121 -80.02419 20330 ft 385 kts 334°
2026-04-21 22:08 34.09558 -80.03763 20328 ft 385 kts 334°
2026-04-21 22:08 34.11981 -80.05128 20327 ft 384 kts 333°
2026-04-21 22:08 34.14383 -80.06537 20322 ft 383 kts 333°
2026-04-21 22:08 34.15600 -80.07251 20315 ft 383 kts 332°
2026-04-21 22:09 34.16851 -80.07993 20315 ft 383 kts 332°
2026-04-21 22:09 34.18118 -80.08740 20316 ft 382 kts 332°
2026-04-21 22:09 34.19029 -80.09276 20315 ft 381 kts 332°
2026-04-21 22:09 34.20001 -80.09850 20316 ft 381 kts 332°
2026-04-21 22:10 34.21363 -80.10652 20311 ft 380 kts 332°
2026-04-21 22:10 34.22042 -80.11052 20312 ft 379 kts 332°
2026-04-21 22:10 34.23175 -80.11724 20310 ft 379 kts 332°
2026-04-21 22:10 34.24554 -80.12540 20305 ft 378 kts 332°
2026-04-21 22:11 34.25143 -80.12888 20309 ft 377 kts 332°
2026-04-21 22:11 34.26343 -80.13597 20303 ft 377 kts 332°
2026-04-21 22:11 34.26989 -80.13978 20299 ft 376 kts 332°
2026-04-21 22:11 34.28272 -80.14736 20302 ft 376 kts 332°
2026-04-21 22:12 34.28629 -80.14947 20299 ft 375 kts 332°
2026-04-21 22:12 34.29111 -80.15232 20299 ft 375 kts 332°
2026-04-21 22:12 34.30987 -80.16350 20301 ft 374 kts 332°
2026-04-21 22:12 34.33320 -80.17732 20294 ft 373 kts 332°
2026-04-21 22:13 34.35651 -80.19108 20296 ft 372 kts 332°
2026-04-21 22:13 34.37973 -80.20483 20296 ft 371 kts 332°
2026-04-21 22:13 34.40280 -80.21849 20303 ft 371 kts 332°
2026-04-21 22:13 34.42575 -80.23215 20300 ft 370 kts 332°
2026-04-21 22:14 34.44863 -80.24578 20301 ft 369 kts 332°
2026-04-21 22:14 34.47130 -80.25929 20329 ft 369 kts 332°
2026-04-21 22:14 34.49435 -80.27300 20335 ft 368 kts 332°
2026-04-21 22:14 34.51737 -80.28670 20336 ft 368 kts 332°
2026-04-21 22:15 34.54032 -80.30041 20332 ft 368 kts 332°
2026-04-21 22:15 34.56328 -80.31407 20242 ft 367 kts 332°
2026-04-21 22:15 34.58519 -80.32707 19906 ft 361 kts 332°
2026-04-21 22:15 34.60595 -80.34023 19572 ft 359 kts 327°
2026-04-21 22:16 34.61645 -80.34876 19424 ft 359 kts 323°
2026-04-21 22:16 34.63621 -80.36743 19122 ft 359 kts 320°
2026-04-21 22:16 34.65535 -80.38691 18828 ft 359 kts 319°
2026-04-21 22:16 34.67436 -80.40627 18522 ft 354 kts 320°
2026-04-21 22:17 34.69293 -80.42478 18178 ft 346 kts 321°
2026-04-21 22:17 34.71149 -80.44277 17824 ft 339 kts 321°
2026-04-21 22:17 34.72984 -80.46055 17474 ft 337 kts 321°
2026-04-21 22:17 34.74824 -80.47837 17164 ft 339 kts 321°
2026-04-21 22:18 34.76672 -80.49642 16863 ft 342 kts 320°
2026-04-21 22:18 34.78525 -80.51466 16553 ft 344 kts 320°
2026-04-21 22:18 34.80382 -80.53301 16229 ft 343 kts 320°
2026-04-21 22:18 34.82217 -80.55113 15904 ft 339 kts 320°
2026-04-21 22:19 34.84034 -80.56901 15582 ft 336 kts 320°
2026-04-21 22:19 34.85832 -80.58678 15263 ft 333 kts 320°
2026-04-21 22:19 34.87541 -80.60404 14959 ft 331 kts 320°
2026-04-21 22:19 34.89302 -80.62199 14650 ft 329 kts 319°
2026-04-21 22:20 34.91054 -80.63984 14368 ft 327 kts 319°
2026-04-21 22:20 34.92793 -80.65760 14063 ft 326 kts 319°
2026-04-21 22:20 34.94523 -80.67527 13714 ft 323 kts 319°
2026-04-21 22:20 34.96150 -80.69190 13391 ft 319 kts 319°
2026-04-21 22:21 34.97841 -80.70921 13050 ft 315 kts 319°
2026-04-21 22:21 34.99506 -80.72621 12723 ft 310 kts 320°
2026-04-21 22:21 35.01123 -80.74283 12396 ft 306 kts 319°
2026-04-21 22:21 35.02722 -80.75969 12090 ft 302 kts 319°
2026-04-21 22:22 35.04298 -80.77648 11784 ft 300 kts 319°
2026-04-21 22:22 35.05865 -80.79313 11489 ft 298 kts 319°
2026-04-21 22:22 35.07422 -80.80936 11178 ft 295 kts 323°
2026-04-21 22:22 35.09239 -80.81907 10873 ft 292 kts 345°
2026-04-21 22:23 35.11224 -80.82372 10576 ft 289 kts 351°
2026-04-21 22:23 35.13212 -80.82612 10264 ft 285 kts 354°
2026-04-21 22:23 35.15112 -80.82757 9911 ft 283 kts 355°
2026-04-21 22:23 35.17026 -80.82865 9440 ft 283 kts 355°
2026-04-21 22:24 35.18990 -80.82963 9143 ft 278 kts 355°
2026-04-21 22:24 35.20898 -80.83076 8859 ft 273 kts 355°
2026-04-21 22:24 35.22791 -80.83163 8490 ft 272 kts 356°
2026-04-21 22:24 35.24682 -80.83235 8114 ft 271 kts 356°
2026-04-21 22:25 35.26567 -80.83300 7726 ft 270 kts 356°
2026-04-21 22:25 35.28432 -80.83361 7438 ft 266 kts 356°
2026-04-21 22:25 35.30261 -80.83420 7225 ft 259 kts 356°
2026-04-21 22:25 35.32034 -80.83472 6932 ft 257 kts 356°
2026-04-21 22:26 35.33818 -80.83525 6577 ft 256 kts 356°
2026-04-21 22:26 35.35596 -80.83577 6253 ft 254 kts 356°
2026-04-21 22:26 35.37346 -80.83629 6031 ft 248 kts 356°
2026-04-21 22:26 35.39043 -80.83681 5928 ft 238 kts 356°
2026-04-21 22:27 35.40677 -80.83734 5721 ft 233 kts 356°
2026-04-21 22:27 35.42307 -80.83776 5365 ft 235 kts 356°
2026-04-21 22:27 35.43863 -80.83916 5082 ft 234 kts 349°
2026-04-21 22:27 35.45465 -80.84244 4799 ft 232 kts 346°
2026-04-21 22:28 35.47015 -80.84631 4559 ft 229 kts 343°
2026-04-21 22:28 35.48521 -80.85174 4376 ft 222 kts 339°
2026-04-21 22:28 35.49716 -80.85734 4230 ft 216 kts 327°
2026-04-21 22:28 35.50152 -80.86134 4189 ft 209 kts 309°
2026-04-21 22:29 35.50649 -80.87500 4238 ft 186 kts 267°
2026-04-21 22:29 35.50189 -80.88836 4204 ft 166 kts 217°
2026-04-21 22:29 35.49253 -80.89517 4172 ft 158 kts 205°
2026-04-21 22:29 35.48198 -80.89998 4164 ft 166 kts 198°
2026-04-21 22:30 35.47037 -80.90370 4147 ft 178 kts 195°
2026-04-21 22:30 35.45805 -80.90722 4087 ft 182 kts 194°
2026-04-21 22:30 35.44565 -80.91076 3990 ft 184 kts 195°
2026-04-21 22:30 35.43530 -80.91403 3896 ft 185 kts 195°
2026-04-21 22:31 35.42424 -80.91767 3794 ft 181 kts 195°
2026-04-21 22:31 35.41216 -80.92175 3676 ft 179 kts 195°
2026-04-21 22:31 35.40024 -80.92584 3569 ft 177 kts 195°
2026-04-21 22:31 35.38844 -80.93001 3436 ft 176 kts 195°
2026-04-21 22:32 35.37670 -80.93400 3270 ft 175 kts 194°
2026-04-21 22:32 35.36474 -80.93797 3124 ft 181 kts 194°
2026-04-21 22:32 35.35265 -80.94186 3024 ft 183 kts 194°
2026-04-21 22:32 35.34008 -80.94569 2862 ft 185 kts 188°
2026-04-21 22:33 35.32751 -80.94431 2687 ft 184 kts 173°
2026-04-21 22:33 35.31485 -80.94341 2552 ft 179 kts 178°
2026-04-21 22:33 35.30270 -80.94278 2339 ft 167 kts 176°
2026-04-21 22:33 35.29161 -80.94184 2083 ft 150 kts 176°
2026-04-21 22:34 35.28154 -80.94094 1892 ft 147 kts 176°
2026-04-21 22:34 35.27147 -80.94012 1724 ft 143 kts 176°
2026-04-21 22:34 35.26136 -80.93922 1522 ft 146 kts 176°
2026-04-21 22:34 35.25095 -80.93840 1318 ft 154 kts 176°
2026-04-21 22:35 35.24052 -80.93740 1104 ft 149 kts 179°
2026-04-21 22:35 35.23022 -80.93657 899 ft 146 kts 179°
2026-04-21 22:35 35.22002 -80.93571 729 ft 140 kts 179°
2026-04-21 22:35 35.21168 -80.93505 718 ft 103 kts 176°
2026-04-21 22:36 35.20558 -80.93493 714 ft 24 kts 198°
2026-04-21 22:36 35.20508 -80.93546 712 ft 8 kts 263°
2026-04-21 22:36 35.20508 -80.93556 715 ft 0 kts 266°
2026-04-21 22:37 35.20508 -80.93568 714 ft 3 kts 284°
2026-04-21 22:37 35.20522 -80.93588 712 ft 4 kts 338°
2026-04-21 22:37 35.20566 -80.93591 713 ft 7 kts 359°
2026-04-21 22:38 35.20607 -80.93591 715 ft 8 kts 359°
2026-04-21 22:38 35.20666 -80.93595 715 ft 10 kts 356°
2026-04-21 22:38 35.20735 -80.93601 716 ft 10 kts 356°
2026-04-21 22:38 35.20804 -80.93607 718 ft 10 kts 356°
2026-04-21 22:39 35.20871 -80.93613 716 ft 10 kts 355°
2026-04-21 22:39 35.20937 -80.93619 717 ft 9 kts 356°
2026-04-21 22:39 35.21002 -80.93624 719 ft 9 kts 356°
2026-04-21 22:39 35.21069 -80.93630 719 ft 11 kts 356°
2026-04-21 22:40 35.21155 -80.93637 718 ft 14 kts 356°
2026-04-21 22:40 35.21250 -80.93645 720 ft 14 kts 356°
2026-04-21 22:40 35.21343 -80.93653 724 ft 13 kts 355°
2026-04-21 22:40 35.21434 -80.93661 720 ft 13 kts 356°
2026-04-21 22:41 35.21524 -80.93669 721 ft 13 kts 354°
2026-04-21 22:41 35.21599 -80.93721 724 ft 13 kts 313°
2026-04-21 22:41 35.21656 -80.93802 723 ft 12 kts 310°
2026-04-21 22:41 35.21714 -80.93880 725 ft 13 kts 317°
2026-04-21 22:42 35.21776 -80.93943 723 ft 10 kts 341°
2026-04-21 22:42 35.21837 -80.93924 723 ft 9 kts 358°
2026-04-21 22:42 35.21892 -80.93938 723 ft 8 kts 19°
2026-04-21 22:42 35.21937 -80.93890 724 ft 10 kts 48°
2026-04-21 22:43 35.21963 -80.93854 726 ft 11 kts 49°
2026-04-21 22:43 35.22016 -80.93802 726 ft 11 kts 15°
2026-04-21 22:43 35.22093 -80.93802 727 ft 11 kts 355°
2026-04-21 22:43 35.22185 -80.93810 726 ft 15 kts 356°
2026-04-21 22:44 35.22298 -80.93819 727 ft 17 kts 356°
2026-04-21 22:44 35.22403 -80.93831 728 ft 11 kts 339°
2026-04-21 22:44 35.22447 -80.93896 729 ft 10 kts 291°
2026-04-21 22:44 35.22440 -80.93966 728 ft 8 kts 246°
2026-04-21 22:45 35.22427 -80.94001 728 ft 0 kts 245°
2026-04-21 22:45 35.22426 -80.94004 727 ft 0 kts 251°
2026-04-21 22:45 35.22427 -80.94006 727 ft 0 kts 254°